STARLINK-5300, 55676

Orbit data source: Space-Track

STARLINK-5300, 55676 is a payload satellite owned by SpaceX/Seattle (US) in LEO that was launched on Fri, 17 Feb 2023 UTC via an FALCON 9 launch vehicle from the Air Force Western Test Range (AFWTR). Payload-class satellites include a variety of spacecraft equipped with specific instruments for various scientific and technological missions. These include communications satellites like Starlink; space stations such as the ISS; scientific satellites like the Hubble; Earth observation satellites from companies like Planet Labs, Umbra, and HawkEye 360; GPS; miniature CubeSats for education and research; and military/defense satellites.

Loading next visibility...
Identifier
55676, 2023-021BA
Orbit
LEO
Country
Flag of USUS
Related business
Manufacturer
SpaceX/Seattle
Mission
Operational Commercial Communications
Bus & Motor
STARLINK, Unknown motor
Mass
305 kg wet, ~290 kg dry
Launch date (UTC)
2023-02-17 (3 years ago)
Launch vehicle
FALCON 9
Launch site
Air Force Western Test Range (AFWTR)
Object type
Payload
Rocket body
Debris
Shape & HBR
Box + 1 Pan, 10.1 m
Radar Cross Section
13.562 m², Large (>1 m²)

Expand to show TLE details & history
Last TLE update: 2 days ago

TLE from 2 days ago
0 STARLINK-5300
1 55676U 23021BA  26171.47892913  .00001679  00000-0  14843-3 0  9993
2 55676  69.9995 245.3207 0003518 268.9450  91.1306 14.98335423185176
Epoch: 2026-06-20T11:29Z
TLE epoch observation values (Epoch: 2026-06-20T11:29:39.476Z)
Latitude
-0.00004°
Longitude
164.21323°
Altitude
574.512 km
Speed
7.574 km/s
True Right ascension
16h 21m 16s
True Declination
0° 00' 00"
Sunlit
Object was in full shadow at epoch
Visualization orbit readout
Latitude
Unknown
Longitude
Unknown
Altitude
Unknown
Speed
Unknown
Apparent Right ascension
Unknown
Apparent Declination
Unknown
Sunlit
N/A
Visualization observer readout
Local Sidereal Time
21:42:27
Azimuth
Unknown
Elevation
Unknown
Doppler factor
Unknown
Orbital elements
Apogee altitude
572.432 km
Perigee altitude
567.543 km
Semi-major axis
6,948.124 km
Eccentricity
0.00035
Inclination
69.9995°
RAAN
245.3207°
Arg. of periapsis
268.945°
True anomaly
91.17091°
Mean anomaly
91.1306°
Eccentric anomaly
91.15075°
Mean motion
3.7475 °/min
Orbital period
96.06 mins
BSTAR
0.00014843
Loading maneuver chart data...
Computing Atmospheric mass density...

Documentation

Showing up to 5 results
|